TIANMU-1 09

Last updated on Thu Apr 09 2026 00:02:23 GMT+0000 (Coordinated Universal Time)

1 57401U 23101C 26098.57041756 .00005923 00000+0 20985-3 0 9999 2 57401 97.2612 150.0802 0004725 69.4700 290.7048 15.29470971151008
UTC large
Height (km)
Speed (km/s)
/
Latitude / Longitude
Inclination (degrees)
Orbital Period (minutes)
Azimuth
Elevation
Range (km)
Doppler Factor

Next 0 passes for location: London (51.5072 / 0.1276)

Sorry there are no passes over London.